Zurück zum Katalog

DELTA 1 DEB

AktivSSO
NORAD 21450·DEBRIS·🇺🇸 United States

Gestartet Jun 12, 1975 von Vandenberg Space Force Base

Loading…

Nächste Überflüge (nächste 24 Stunden)

TLE

AktuellSource: Space-Track

Epoche: Sep 14, 2026, 04:35 UTC

1 21450U 75052EJ  26257.19107750  .00000116  00000-0  31012-3 0  9991
2 21450  99.8346 140.0613 0060277  38.6731 112.8857 13.35416337721297

Verfolge DELTA 1 DEB in Echtzeit mit AllMySat

Download on the App Store